Weather History for Ann Arbor, MI

Change the Weather History Date:

Tuesday, July 3, 2012

  Actual Average Record
Temperature  
Mean Temperature 77 °F -  
Max Temperature 89 °F 79 °F 96 °F (2002)
Min Temperature 66 °F 55 °F 48 °F (2005)
Cooling Degree Days 12    
Growing Degree Days 27 (Base 50)    
Moisture  
Dew Point 69 °F    
Average Humidity 76    
Maximum Humidity 94    
Minimum Humidity 55    
Precipitation  
Precipitation 0.00 in - - ()
Sea Level Pressure  
Sea Level Pressure 29.88 in    
Wind  
Wind Speed 3 mph (SE)    
Max Wind Speed 28 mph    
Max Gust Speed 38 mph    
Visibility 7 miles    
Events Rain , Thunderstorm    
Averages and records for this station are not official NWS values.
T = Trace of Precipitation, MM = Missing Value Source: NWS Daily Summary

Daily Weather History Graph

Daily Weather History Graph

Search for Another Location

Airport:

Trip Planner

Search our weather history database for the weather conditions in past years. The results will help you decide how hot, cold, wet, or windy it might be!

Date:

Astronomy

Jul. 03, 2012 Rise Set
Actual Time 6:03 AM EDT 9:14 PM EDT
Civil Twilight 5:29 AM EDT 9:48 PM EDT
Nautical Twilight 4:45 AM EDT 10:32 PM EDT
Astronomical Twilight 3:52 AM EDT 11:25 PM EDT
Moon 9:07 PM EDT (7/3) 5:56 AM EDT (7/3)
Length of Visible Light 16h 19m
Length of Day
15h 10m
Full, 100% of the Moon is Illuminated
Jul 3
Full
Jul 3
Full
Jul 10
Last Quarter
Jul 19
New
Jul 26
First Quarter

Hourly Weather History & Observations

Time (EDT) Temp. Heat Index Dew Point Humidity Pressure Visibility Wind Dir Wind Speed Gust Speed Precip Events Conditions
12:53 AM 71.1 °F - 66.0 °F 84% 29.94 in 10.0 mi Calm Calm - N/A   Clear
1:53 AM 69.1 °F - 64.0 °F 84% 29.92 in 10.0 mi Calm Calm - N/A   Clear
2:53 AM 68.0 °F - 64.9 °F 90% 29.91 in 9.0 mi Calm Calm - N/A   Clear
3:53 AM 66.9 °F - 64.9 °F 93% 29.90 in 7.0 mi Calm Calm - N/A   Clear
4:53 AM 69.1 °F - 66.0 °F 90% 29.91 in 7.0 mi Calm Calm - N/A   Clear
5:53 AM 71.1 °F - 66.9 °F 87% 29.89 in 6.0 mi Calm Calm - 0.00 in Rain , Thunderstorm Light Rain
7:02 AM 71.6 °F - 69.8 °F 94% 29.92 in 4.0 mi ESE 3.5 mph - N/A Thunderstorm Partly Cloudy
7:17 AM 73.4 °F - 69.8 °F 88% 29.92 in 4.0 mi Calm Calm - N/A   Mostly Cloudy
7:53 AM 75.0 °F - 69.1 °F 82% 29.89 in 6.0 mi Calm Calm - N/A   Haze
8:08 AM 75.2 °F - 69.8 °F 83% 29.92 in 5.0 mi SSE 3.5 mph - N/A Thunderstorm Haze
8:28 AM 75.2 °F - 69.8 °F 83% 29.92 in 6.0 mi Calm Calm - N/A Thunderstorm Haze
8:49 AM 77.0 °F - 69.8 °F 78% 29.94 in 8.0 mi South 3.5 mph - N/A   Clear
9:53 AM 79.0 °F - 69.1 °F 72% 29.91 in 7.0 mi South 3.5 mph - N/A   Clear
10:53 AM 81.0 °F 84.1 °F 69.1 °F 67% 29.94 in 9.0 mi ENE 8.1 mph - N/A   Clear
11:53 AM 82.0 °F 85.9 °F 70.0 °F 67% 29.92 in 7.0 mi East 6.9 mph - N/A   Clear
12:53 PM 84.0 °F 88.4 °F 70.0 °F 63% 29.89 in 7.0 mi SSE 8.1 mph - N/A   Partly Cloudy
1:53 PM 84.9 °F 89.4 °F 70.0 °F 61% 29.88 in 7.0 mi SSE 5.8 mph - N/A   Partly Cloudy
2:53 PM 84.9 °F 89.4 °F 70.0 °F 61% 29.87 in 8.0 mi South 8.1 mph - N/A   Clear
3:53 PM 88.0 °F 92.9 °F 70.0 °F 55% 29.85 in 10.0 mi SSE 10.4 mph - N/A Thunderstorm Clear
4:23 PM 82.4 °F 87.2 °F 71.6 °F 70% 29.86 in 5.0 mi SSE 6.9 mph - 0.00 in Rain Rain
4:37 PM 84.2 °F 90.9 °F 73.4 °F 70% 29.86 in 8.0 mi ESE 4.6 mph - 0.00 in Rain , Thunderstorm Light Thunderstorms and Rain
4:53 PM 88.0 °F 95.6 °F 73.0 °F 61% 29.82 in 9.0 mi SSE 5.8 mph - 0.00 in   Clear
5:45 PM 86.0 °F 91.8 °F 71.6 °F 62% 29.82 in 9.0 mi SSE 6.9 mph - N/A Thunderstorm Clear
5:53 PM 84.9 °F 90.7 °F 72.0 °F 65% 29.79 in 8.0 mi ESE 6.9 mph - N/A Thunderstorm Thunderstorm
6:04 PM 80.6 °F 84.6 °F 71.6 °F 74% 29.83 in 1.0 mi NNE 27.6 mph 38.0 mph 0.00 in Rain , Thunderstorm Heavy Thunderstorms and Rain
6:11 PM 77.0 °F - 64.4 °F 65% 29.83 in 3.0 mi Calm Calm - 0.00 in Rain , Thunderstorm Light Thunderstorms and Rain
6:40 PM 78.8 °F - 68.0 °F 69% 29.83 in 10.0 mi Calm Calm - 0.00 in   Scattered Clouds
6:53 PM 80.1 °F 83.2 °F 70.0 °F 71% 29.81 in 10.0 mi ENE 3.5 mph - 0.00 in   Partly Cloudy
7:53 PM 78.1 °F - 71.1 °F 79% 29.83 in 6.0 mi ENE 6.9 mph 21.9 mph N/A   Haze
8:53 PM 75.9 °F - 68.0 °F 76% 29.84 in 8.0 mi ESE 4.6 mph - N/A   Clear
9:53 PM 73.0 °F - 66.9 °F 81% 29.84 in 9.0 mi Calm Calm - N/A   Clear
10:53 PM 71.1 °F - 66.9 °F 87% 29.85 in 7.0 mi Calm Calm - N/A   Clear
11:53 PM 70.0 °F - 66.0 °F 87% 29.85 in 7.0 mi WSW 4.6 mph - N/A   Clear